BSAT-4A

Last updated on Sun Apr 12 2026 00:02:54 GMT+0000 (Coordinated Universal Time)

1 42951U 17059B 26101.47110844 -.00000348 00000+0 00000+0 0 9996 2 42951 0.0924 59.6006 0004664 342.7180 76.7989 1.00270014 31138
UTC large
Height (km)
Speed (km/s)
/
Latitude / Longitude
Inclination (degrees)
Orbital Period (minutes)
Azimuth
Elevation
Range (km)
Doppler Factor

Next 0 passes for location: London (51.5072 / 0.1276)

Sorry there are no passes over London.
BSAT-4A